Location: Usti nad Orlici
(49.9830°N, 16.4000°E)
Time: 14:31:51
(UTC+02:00)

ISS - Pass Details

Date: 30 March 2019
Orbit: 408 x 410 km, 51.6° (Epoch: 24 April)

Event Time Altitude Azimuth Distance (km) Brightness Sun altitude
Rises 19:14:23 0° 272° (W) 2,337 1.8 -9.0°
Reaches altitude 10° 19:16:30 10° 276° (W) 1,475 0.5 -9.3°
Maximum altitude 19:19:46 63° 358° (N) 463 -3.5 -9.8°
Enters shadow 19:22:41 13° 80° (E) 1,322 -1.8 -10.2°
